This demonstration page uses our WeatherBlox Daily Observations layout. Learn more.

Left ArrowRight Arrow

38.89511, -77.03637

Hourly Observations for July 17, 2018

Temp ( °F °C ) Dew Point ( °F °C ) Humidity (%) Winds ( mph kmh ) Pressure ( in mb ) Visibility ( mi km ) Precip ( " mm )
12:52 am 00:52 Mostly Cloudy 81 27.2 72 22.2 74 74 S 8 13 29.93 1014 10 16 0.00 0.00
1:52 am 01:52 Mostly Clear 80 26.7 72 22.2 76 76 S 9 15 29.92 1013 10 16 0.00 0.00
2:52 am 02:52 Mostly Clear 80 26.7 73 22.8 79 79 S 12 19 29.91 1013 10 16 0.00 0.00
3:52 am 03:52 Partly Cloudy 79 26.1 72 22.2 79 79 SSW 9 15 29.91 1013 10 16 0.00 0.00
4:52 am 04:52 Mostly Cloudy 78 25.6 72 22.2 82 82 S 8 13 29.89 1012 10 16 0.00 0.00
5:52 am 05:52 Partly Cloudy 78 25.6 72 22.2 82 82 S 8 13 29.88 1012 10 16 0.00 0.00
6:52 am 06:52 Mostly Cloudy 78 25.6 72 22.2 82 82 S 5 7 29.89 1012 10 16 0.00 0.00
7:52 am 07:52 Mostly Cloudy 81 27.2 71 21.7 72 72 SSW 10 17 29.89 1012 10 16 0.00 0.00
8:52 am 08:52 Mostly Cloudy 83 28.3 73 22.8 72 72 S 8 13 29.88 1012 10 16 0.00 0.00
9:52 am 09:52 Mostly Cloudy 86 30 72 22.2 63 63 S 8 13 29.87 1011 10 16 0.00 0.00
10:52 am 10:52 Mostly Cloudy 87 30.6 73 22.8 63 63 S 10 17 29.86 1011 10 16 0.00 0.00
11:52 am 11:52 Mostly Cloudy 88 31.1 73 22.8 61 61 S 12 19 29.85 1011 10 16 0.00 0.00
12:52 pm 12:52 Cloudy 87 30.6 74 23.3 65 65 S 14 22 29.83 1010 10 16 0.00 0.03
1:52 pm 13:52 Mostly Cloudy 89 31.7 74 23.3 61 61 S 12 19 29.81 1009 10 16 0.00 0.03
2:52 pm 14:52 Cloudy 89 31.7 72 22.2 57 57 SSW 8 13 29.78 1009 10 16 0.00 0.00
3:07 pm 15:07 Cloudy with Thunderstorms 88 31.1 72 22.2 59 59 SW 18 30 29.80 1009 4 6 0.00 0.03
3:09 pm 15:09 Windy with Storms Likely 86 30 73 22.8 65 65 SSW 23 37 29.80 1009 1 1 0.01 0.25
3:11 pm 15:11 Cloudy with Thunderstorms 82 27.8 73 22.8 74 74 S 13 20 29.80 1009 1 1 0.10 2.54
3:14 pm 15:14 Cloudy with Strong Thunderstorms 79 26.1 72 22.2 79 79 WSW 15 24 29.83 1010 1 1 0.24 6.10
3:19 pm 15:19 Cloudy with Strong Thunderstorms 77 25 71 21.7 82 82 NW 21 33 29.83 1010 1 1 0.50 12.70
3:22 pm 15:22 Cloudy with Strong Thunderstorms 77 25 72 22.2 85 85 NNW 28 44 29.83 1010 0 0 0.63 16.00
3:32 pm 15:32 Cloudy with Strong Thunderstorms 76 24.4 72 22.2 88 88 NW 33 54 29.85 1011 0 0 1.20 30.48
3:36 pm 15:36 Mostly Cloudy with Strong Thunderstorms 76 24.4 72 22.2 88 88 WNW 25 41 29.88 1012 1 2 1.47 37.34
3:47 pm 15:47 Mostly Cloudy with Strong Thunderstorms 73 23 72 22 94 94 VRB 5 7 29.83 1010 1 1 2.42 61.47
3:52 pm 15:52 Cloudy with Strong Thunderstorms 74 23.3 72 22.2 94 94 VRB 3 6 29.81 1010 1 2 2.63 66.80
3:58 pm 15:58 Cloudy with Thunderstorms 74 23.3 71 21.7 91 91 VRB 5 7 29.83 1010 5 8 0.12 3.05
4:09 pm 16:09 Cloudy with Thunderstorms 75 23.9 71 21.7 88 88 SW 5 7 29.80 1009 7 11 0.14 3.56
4:31 pm 16:31 Mostly Cloudy with Light Rain 77 25 73 22.8 88 88 ENE 5 7 29.80 1009 8 13 0.16 4.06
4:47 pm 16:47 Mostly Cloudy with Nearby Thunderstorms 79 26 73 23 84 84 ENE 6 9 29.77 1008 10 16 0.16 4.06
4:52 pm 16:52 Mostly Cloudy with Nearby Thunderstorms 78 25.6 74 23.3 87 87 ENE 3 6 29.78 1009 10 16 0.16 4.06
5:34 pm 17:34 Mostly Cloudy 81 27.2 75 23.9 82 82 Calm 29.80 1009 10 16 0.00 0.00
5:52 pm 17:52 Mostly Cloudy 82 27.8 75 23.9 79 79 Calm 29.81 1009 10 16 0.00 0.00
6:52 pm 18:52 Mostly Cloudy 83 28.3 74 23.3 74 74 NNW 7 11 29.81 1010 10 16 0.00 0.00
7:52 pm 19:52 Mostly Cloudy 83 28.3 74 23.3 74 74 Calm 29.83 1010 10 16 0.00 0.00
8:52 pm 20:52 Mostly Cloudy 82 27.8 74 23.3 77 77 W 5 7 29.83 1010 10 16 0.00 0.00
9:52 pm 21:52 Mostly Cloudy 82 27.8 73 22.8 74 74 NNW 21 33 29.88 1012 10 16 0.00 0.00
10:52 pm 22:52 Mostly Cloudy 75 23.9 66 18.9 74 74 NNW 7 11 29.86 1011 10 16 0.00 0.03
11:52 pm 23:52 Partly Cloudy 74 23.3 67 19.4 79 79 NNW 9 15 29.87 1011 10 16 0.00 0.00

Powered by AerisWeather